Location: Bastrop State Park
(30.1090°N, 97.2819°W)
Time: 12:15:18
(UTC-05:00)

Daily predictions for brighter satellites

Satellite Brightness Start Highest point End
(mag) Time Altitude Azimuth Time Altitude Azimuth Time Altitude Azimuth
METEOR-M 4.3 20:47:48 10° SSE 20:53:09 84° WSW 20:58:32 10° NNW
Cosmos 1892 Rocket 3.6 20:48:47 10° S 20:53:11 79° E 20:57:40 10° N
Cosmos 1331 Rocket 4.2 20:48:31 10° N 20:53:36 53° ENE 20:58:36 10° SSE
Cosmos 1743 2.8 20:51:12 10° N 20:54:58 58° E 20:58:43 10° SSE
Atlas Centaur 2 2.8 20:48:42 10° WSW 20:55:16 80° SSE 21:03:20 10° E
Meteor 2-17 Rocket 4.5 20:49:15 10° N 20:55:24 70° E 21:01:30 10° SSE
Resurs 01 Rocket 3.3 20:55:49 10° SSW 20:59:52 35° W 21:03:56 10° NNW
ATLAS 3B R/B 3.7 20:55:03 10° SSE 21:01:23 29° ESE 21:07:43 10° NE
Aureole 2 Rocket 3.0 20:57:43 10° SSW 21:01:43 72° WNW 21:05:23 10° N
Cosmos 1461 4.3 20:58:32 10° N 21:01:53 23° NE 21:05:02 10° ESE
Cosmos 1603 3.7 20:56:33 10° S 21:02:03 59° ESE 21:07:33 10° NNE
ISS -2.0 20:59:06 10° WSW 21:02:13 44° NW 21:05:22 10° NNE
BREEZE-M DEB (TANK) 3.9 20:52:22 10° SW 21:02:22 70° NW 21:05:24 10° NE
ALOS 2.4 21:01:23 10° SSE 21:05:56 59° ENE 21:10:32 10° N
Abrixas rocket 3.2 21:02:56 10° NNW 21:06:10 38° NE 21:09:03 12° ESE
FENGYUN 3A 3.7 21:03:25 10° SSE 21:08:42 62° ENE 21:14:00 10° N
Meteor 1-23 Rocket 4.3 21:04:42 10° S 21:10:20 89° W 21:16:04 10° N
Cosmos 1939 Rocket 4.5 21:14:42 14° ESE 21:17:00 20° ENE 21:20:05 10° NNE
Cosmos 1726 Rocket 3.8 21:15:19 10° N 21:19:44 74° W 21:24:05 10° S
Milstar 3 Cent rocket 3.1 21:10:47 10° W 21:20:08 52° SSW 21:24:28 16° SE
ERS-1 Rocket 3.4 21:17:09 12° SE 21:21:28 44° ENE 21:26:13 10° N
Meteor 2-4 Rocket 4.2 21:16:04 10° SSW 21:21:52 69° W 21:27:47 10° N
USA 186 1.5 21:19:45 10° S 21:22:37 76° W 21:25:19 10° NNW
Cosmos 1943 3.8 21:18:29 10° SSE 21:23:30 34° ESE 21:28:33 10° NE
SPOT 5 4.3 21:23:00 14° E 21:24:47 17° ENE 21:27:37 10° NNE
Cosmos 2297 4.1 21:19:19 10° NNW 21:24:59 67° WSW 21:30:39 10° S
H-2A R/B 3.0 21:25:27 10° S 21:29:22 75° W 21:33:20 10° NNW
CZ-4 DEB 3.3 21:28:55 10° S 21:32:04 57° W 21:35:15 10° NNW
Delta 168 3.1 21:30:25 10° WSW 21:33:27 38° S 21:35:06 25° SE
Envisat 4.0 21:31:25 19° ESE 21:34:05 30° ENE 21:38:29 10° NNE
COSMOS 2455 2.9 21:28:30 10° SSW 21:34:30 88° WNW 21:40:32 10° NNE
Cosmos 1602 Rocket 3.5 21:30:41 10° S 21:35:09 81° E 21:39:38 10° N
Cosmos 1513 Rocket 4.4 21:33:30 10° N 21:39:44 74° E 21:45:16 13° SSE
Cosmos 2058 Rocket 3.8 21:37:17 10° NNW 21:41:31 52° W 21:45:44 10° S
deb Centaur AC-2 4.4 21:38:18 10° W 21:43:06 90° N 21:47:31 17° E
APEX 4.1 21:38:29 10° NNW 21:43:10 82° WSW 21:47:49 17° SSE
Tsikada Rocket 4.0 21:37:57 10° S 21:44:20 77° E 21:50:43 10° N
ATLAS 5 CENTAUR R/B 2.4 21:47:14 10° SW 21:49:43 22° SSE 21:49:43 22° SSE
Cosmos 1812 Rocket 3.8 21:47:53 10° N 21:52:10 50° E 21:53:47 33° SE
OAO 3 Copernicus 4.2 21:47:35 10° WNW 21:52:39 78° SSW 21:55:01 31° ESE
H-2A R/B 2.0 21:56:28 27° S 21:58:46 83° WSW 22:03:07 10° NNW
CZ-2C R/B 2.6 22:04:33 21° WSW 22:04:49 21° W 22:06:41 10° NW
Fermi 4.4 22:03:04 10° WSW 22:06:52 38° S 22:06:57 38° S
Cosmos 1666 4.3 22:05:58 10° NNW 22:09:28 33° W 22:12:17 14° SSW
CZ-3C R/B 3.2 22:04:19 10° WSW 22:10:33 22° SSW 22:10:48 21° SSW
Lacrosse 4 Rocket 1.1 22:08:46 23° SSW 22:11:13 85° ESE 22:15:17 10° NNE
Cosmos 2369 Rocket 3.0 22:07:34 10° N 22:12:40 34° ENE 22:13:56 30° E
Mugunghwa Rocket 4.2 22:07:44 10° SW 22:13:44 46° SSE 22:15:29 37° SE
Cosmos 1992 Rocket 4.3 22:09:13 10° N 22:14:16 49° ENE 22:15:24 42° ESE
USA 81 4.3 22:11:45 10° N 22:16:51 48° E 22:17:46 44° ESE
UNK 4.2 22:12:23 10° NNE 22:17:57 88° ESE 22:22:30 18° SSW
SeaSat 1 3.0 22:18:29 38° E 22:19:26 43° ENE 22:24:05 10° N
Meteor 2-12 Rocket 4.3 22:14:58 10° N 22:21:04 81° E 22:23:37 37° SSE
Cosmos 1634 Rocket 4.1 22:18:34 10° N 22:24:38 56° E 22:26:12 44° SE
Cosmos 1953 Rocket 3.4 22:26:34 67° E 22:26:38 67° E 22:31:01 10° NNE
YAOGAN 6 3.5 22:29:04 39° NE 22:29:04 39° NE 22:31:52 10° N
Cosmos 489 Rocket 4.4 22:24:51 23° S 22:29:01 81° ESE 22:35:24 10° NNE
Cosmos 1190 Rocket 4.3 22:27:42 15° SSW 22:32:09 67° WNW 22:37:27 10° N
H-2A R/B 3.7 22:36:00 19° ENE 22:36:00 19° ENE 22:39:00 10° NNE
CZ-4B R/B 3.7 22:33:09 10° N 22:38:17 73° WNW 22:40:38 33° SSW
Cosmos 2346 Rocket 4.5 22:35:09 29° SSW 22:38:30 78° W 22:44:40 10° N
COSMOS 2406 4.1 22:45:47 34° ENE 22:45:47 34° ENE 22:49:33 10° NE
SPOT 1/Viking Rocket 3.4 22:43:57 69° ESE 22:44:15 72° ENE 22:49:23 10° N
Cosmos 1932 4.2 22:42:30 38° SSW 22:45:02 79° ESE 22:51:15 10° NNE
Atlas Centaur 2 2.9 22:37:43 10° W 22:45:12 88° N 22:49:13 35° E
Cosmos 2279 Rocket 4.3 22:39:33 10° N 22:45:33 46° E 22:45:51 46° E
Cosmos 676 Rocket 4.0 22:48:02 55° SSW 22:49:13 81° WNW 22:54:34 10° NNE
ATLAS 3B R/B 3.8 22:44:23 10° SW 22:51:49 50° WNW 22:59:10 10° NNE
MetOp-A 4.4 22:54:59 52° SW 22:55:53 59° W 23:01:11 10° NNW
Meteor 1-22 Rocket 4.1 22:53:27 10° N 22:59:10 89° E 22:59:36 78° S
CZ-4 R/B 4.2 22:54:47 10° N 22:59:45 64° WNW 23:00:29 56° WSW
Cosmos 1758 Rocket 4.1 23:00:48 55° WNW 23:00:48 55° WNW 23:04:45 10° N
SPOT 5 4.1 23:02:15 29° WSW 23:02:37 30° W 23:06:26 10° NW
USA 234 3.8 23:06:30 40° ENE 23:07:59 46° NE 23:14:12 10° NNW
Terra 3.1 23:10:21 31° NE 23:10:21 31° NE 23:13:19 10° N
Cosmos 1943 Rocket 3.0 23:04:30 10° N 23:09:02 38° NE 23:09:02 38° NE
USA 238 DEB 4.2 23:30:15 26° SW 23:34:24 58° WNW 23:41:22 10° NNE
USA 238 4.2 23:30:32 27° SW 23:34:30 59° WNW 23:41:28 10° NNE
ARGOS 4.1 23:37:09 42° W 23:37:09 42° W 23:41:50 10° NNW
Cosmos 1092 Rocket 4.4 23:47:06 58° NNE 23:47:06 58° NNE 23:52:07 10° N
